Tracking 29892 objects as of 21-Nov-2024
HD Live streaming from Space Station
objects crossing your sky now

DELTA 1 R/B

Track DELTA 1 R/B now!
10-day predictions


NORAD ID: 575
Int'l Code: 1963-013B
Perigee: 969.6 km
Apogee: 10,790.5 km
Inclination: 42.8 °
Period: 224.9 minutes
Semi major axis: 12251 km
RCS: 0.4447 m2 (medium)
Launch date: May 7, 1963
Source: United States (US)
Launch site: AIR FORCE EASTERN TEST RANGE (AFETR)

Note: This is a ROCKET BODY
Your satellite tracking list
Your tracking list is empty




NASA's NSSDC Master Catalog

Two Line Element Set (TLE):
1 00575U 63013B   24325.93487505 -.00000031  00000-0 -47005-3 0  9992
2 00575  42.7576 172.3309 4008184 235.5478 316.5254  6.40237644439260
Source of the keplerian elements: AFSPC